Wind_Speed
10 9 9 9 9 9 9 10 10 10 9 8 8 9 9 8 7 7 6 6 5 4 3 2 1 1 1 1 1 1 1 2 2 2 2 2 2 2 3 3 3 3 4
9 8 8 9 9 9 9 10 9 10 10 8 8 8 9 8 8 7 6 6 6 4 3 2 2 1 2 2 1 1 2 3 3 3 3 3 3 3 4 4 4 5 5
8 9 9 9 9 9 9 10 10 10 10 9 8 9 9 9 9 8 7 7 6 4 3 3 2 1 1 1 2 2 2 2 3 4 4 4 4 4 4 5 5 5 6
9 9 9 9 9 9 9 10 10 10 9 9 9 9 9 9 8 8 7 7 7 5 4 3 3 2 2 2 2 3 3 4 4 4 5 5 4 5 5 6 6 6 6
10 10 10 10 11 11 10 9 10 10 10 10 10 9 9 9 8 7 7 7 6 5 5 4 4 4 3 3 3 4 4 4 5 5 5 5 5 5 6 6 7 8 7
12 11 11 11 12 13 11 10 10 10 10 10 10 9 9 9 9 8 7 6 6 5 6 5 5 4 3 3 4 4 5 5 5 5 5 6 6 6 7 7 8 8 9
13 12 12 12 12 12 11 11 11 10 11 10 10 10 9 9 9 8 7 7 6 6 6 6 6 5 4 4 5 5 6 6 6 6 6 6 6 7 7 7 8 9 10
14 13 13 13 12 11 11 11 11 10 10 10 10 10 10 10 9 9 8 7 7 6 6 6 6 5 5 6 6 6 7 7 7 7 7 7 8 8 8 9 9 10 11
14 13 12 12 12 11 11 10 10 10 10 10 10 10 10 10 10 9 9 8 7 6 6 6 7 6 6 7 7 8 7 8 8 8 8 9 9 9 9 10 10 10 11
13 12 12 11 11 11 11 10 10 9 10 10 10 10 10 10 10 9 8 7 7 6 6 7 7 7 7 8 8 9 9 8 8 8 8 9 10 10 10 11 11 12 13
12 12 11 11 12 12 11 11 11 11 11 11 11 11 10 10 9 8 8 8 8 7 7 8 8 7 8 8 8 9 9 9 9 10 10 10 11 11 11 11 11 12 13
13 12 13 12 12 12 12 12 12 12 12 11 11 11 11 10 10 10 10 10 9 8 8 9 9 9 9 9 9 10 9 9 10 11 11 11 11 11 11 12 13 13 14
14 13 13 14 13 13 13 13 13 13 13 13 12 12 12 11 11 11 11 10 10 9 10 10 10 10 10 10 10 10 10 10 10 11 11 12 12 12 12 13 14 14 15
15 14 15 15 15 15 15 15 15 14 14 14 14 13 13 12 12 11 11 11 11 11 11 11 12 12 11 11 11 11 11 11 11 11 12 12 12 12 13 13 14 15 16
18 17 16 16 16 16 16 16 15 15 15 15 15 15 14 13 13 12 12 12 12 12 12 12 13 12 12 12 12 12 12 12 12 13 13 13 13 13 14 15 15 16 17
20 19 18 17 16 16 17 17 17 17 16 16 15 15 15 14 14 14 14 14 13 13 13 13 13 13 13 13 14 14 14 14 14 14 14 14 14 15 15 15 16 17 18
20 19 19 18 18 18 17 18 18 18 18 17 17 17 16 16 15 15 15 15 15 15 14 15 15 15 15 16 16 15 16 16 16 16 16 16 16 16 16 17 17 18 18
21 21 20 20 19 19 19 19 19 19 19 19 18 18 17 17 16 16 16 16 16 16 16 16 16 16 16 17 16 16 17 17 18 18 18 19 19 18 19 19 19 19 20
22 22 21 21 20 20 20 20 20 20 20 20 19 19 19 18 17 17 17 17 16 16 17 17 17 17 18 17 17 17 17 17 18 18 19 20 20 20 21 21 21 21 22
23 22 22 22 22 22 22 22 22 21 20 20 20 20 19 19 18 18 18 18 17 17 17 17 17 18 18 17 17 17 18 18 19 20 20 20 21 21 22 22 22 22 23
22 22 22 23 23 23 23 23 22 21 21 21 21 20 20 20 20 19 19 18 18 18 18 18 19 19 19 19 18 19 19 20 20 21 21 22 22 23 23 24 24 24 25
23 23 24 24 24 24 24 24 23 22 22 22 22 21 21 21 21 20 19 19 19 19 19 19 20 20 20 20 20 21 21 21 22 22 23 23 24 24 24 25 26 26 26
24 24 24 24 24 24 24 24 23 23 23 23 23 22 22 22 22 21 20 20 20 20 20 21 21 21 22 22 22 22 23 23 23 23 23 23 24 25 26 26 26 27 28
25 25 24 24 25 24 23 23 23 23 23 23 23 23 23 22 22 22 21 22 22 22 22 22 22 22 23 23 23 23 23 24 24 24 25 25 25 25 26 26 27 28 28
26 25 25 26 26 26 25 26 25 25 24 23 23 23 23 22 22 22 22 23 23 23 23 23 23 23 23 23 24 24 25 25 26 26 26 26 26 26 26 27 28 28 29
28 27 27 27 26 27 27 27 27 25 24 24 24 24 23 23 23 23 24 24 24 24 24 24 24 24 24 24 25 25 25 25 26 26 27 27 27 27 27 28 29 29 30
Wind_Direction
347 350 353 355 356 356 358 359 360 2 5 10 12 12 10 7 4 2 359 355 354 349 344 349 338 301 321 308 286 266 239 228 237 258 267 281 304 308 318 313 308 305 301
335 338 339 342 341 342 344 347 350 356 357 359 2 3 0 357 357 357 358 353 348 340 330 328 341 326 297 284 281 266 257 255 252 267 273 280 294 298 305 308 302 302 303
318 323 325 326 328 335 339 342 343 345 352 355 353 352 351 347 346 346 346 346 347 341 332 329 321 333 281 271 272 262 268 264 260 269 281 287 291 297 300 302 300 302 300
303 310 316 318 319 323 330 334 338 343 347 350 347 345 345 344 342 344 340 334 333 331 327 318 317 330 306 275 279 276 269 273 276 276 279 285 287 296 297 296 299 299 298
294 300 309 314 315 315 319 325 330 333 337 339 338 338 342 344 341 338 333 335 335 324 325 318 314 305 304 289 279 278 282 282 283 283 282 282 282 286 288 293 295 298 295
286 292 300 307 311 310 311 318 323 325 327 331 333 337 338 338 333 328 326 323 327 321 322 320 313 300 297 296 293 291 288 286 284 281 281 283 283 286 289 293 294 297 295
278 283 290 299 310 309 309 313 318 319 323 326 325 328 332 331 329 328 326 322 322 320 321 321 313 301 292 299 305 302 296 289 285 281 283 283 285 287 288 293 297 298 298
273 278 287 294 303 304 302 306 310 313 318 320 320 321 321 322 325 329 327 321 320 316 317 317 314 299 294 298 301 301 298 296 291 285 282 280 279 282 282 286 291 293 296
271 278 283 289 293 295 296 298 304 307 312 314 314 318 317 316 316 320 320 315 315 316 317 317 314 302 301 299 299 298 298 297 292 286 284 282 283 285 283 286 287 289 293
269 274 277 281 286 291 295 295 301 308 311 313 313 315 315 314 313 311 317 318 317 313 313 317 317 310 305 300 299 297 296 298 292 287 288 287 288 289 286 285 288 293 292
263 268 275 277 281 286 289 293 297 298 302 307 311 312 312 309 311 309 306 309 310 307 308 313 315 311 305 302 300 299 296 292 291 292 291 291 294 290 288 288 292 294 295
259 264 274 275 276 278 281 284 288 292 296 300 304 308 309 305 301 300 299 298 300 301 304 305 307 308 305 302 300 297 296 293 292 293 294 296 297 291 289 289 290 293 296
258 262 268 271 273 274 276 279 281 285 290 294 298 300 303 304 300 298 294 291 291 295 299 301 304 304 301 299 301 298 297 295 295 296 296 298 298 295 290 290 291 294 298
256 263 267 267 271 271 274 278 280 282 285 290 292 294 297 298 297 294 293 290 289 291 292 294 298 299 297 298 298 298 296 296 295 295 297 295 295 292 289 290 292 296 300
254 260 264 263 266 269 273 276 278 281 284 287 289 290 291 291 291 288 289 290 289 287 289 291 294 295 294 295 295 296 294 294 293 294 295 294 291 291 289 290 293 296 299
253 257 260 260 263 267 271 275 278 279 281 285 287 288 287 287 287 285 286 287 287 286 286 287 291 292 293 292 291 291 290 290 290 291 291 291 290 290 292 292 293 298 300
249 253 255 258 262 266 268 271 275 277 280 284 284 284 284 285 284 285 286 287 285 283 283 283 285 287 289 290 290 286 286 287 289 291 291 289 287 287 289 290 293 296 298
247 251 254 257 260 263 264 267 271 273 277 280 280 282 284 285 284 284 287 288 287 284 283 283 284 286 289 290 289 286 285 287 287 289 289 288 287 285 287 290 292 294 297
247 250 253 257 259 260 262 264 268 270 273 276 278 281 282 282 282 283 286 288 287 284 284 287 287 287 288 287 287 287 288 288 289 289 289 288 286 286 287 289 290 292 294
248 250 253 255 257 259 261 264 266 268 271 274 277 279 280 280 280 281 283 286 285 283 284 287 288 288 288 288 289 288 287 289 290 291 291 290 288 288 288 288 289 291 293
247 249 253 256 258 259 262 265 266 268 270 272 273 277 278 279 280 279 279 281 283 281 283 287 289 289 288 287 287 288 289 290 290 290 290 289 289 289 289 290 291 292 293
250 251 254 257 260 260 263 264 266 269 270 271 272 275 278 279 279 279 277 279 281 281 283 286 287 289 290 287 286 287 288 289 289 290 290 289 289 289 289 290 291 292 294
249 251 255 258 259 261 262 262 265 268 270 270 272 274 276 277 277 277 277 277 279 281 282 284 285 286 287 285 285 286 286 286 288 289 290 290 290 289 289 290 291 292 294
248 251 255 257 258 260 262 264 266 268 269 272 273 274 273 274 274 275 275 277 278 280 282 283 284 284 285 284 283 284 286 286 287 288 289 290 291 290 290 291 291 292 294
249 251 254 256 257 260 263 265 267 268 270 272 272 273 272 273 275 276 277 278 279 279 280 282 283 284 285 284 283 284 285 286 288 288 289 289 290 291 294 294 293 293 294
250 253 255 257 259 261 262 263 265 268 270 271 272 272 272 273 275 277 277 278 278 278 278 279 281 282 283 282 282 283 284 287 289 290 290 290 291 293 294 295 296 295 295
Height
5934 5932 5931 5929 5927 5925 5924 5922 5920 5918 5916 5914 5913 5911 5910 5909 5908 5907 5906 5905 5904 5904 5903 5903 5902 5902 5902 5902 5902 5902 5902 5902 5902 5902 5902 5902 5902 5901 5901 5900 5900 5899 5899
5933 5932 5931 5929 5927 5925 5924 5922 5920 5918 5916 5914 5913 5912 5911 5909 5908 5907 5906 5905 5904 5903 5903 5902 5902 5901 5901 5901 5902 5902 5902 5902 5902 5902 5902 5902 5902 5901 5900 5900 5899 5899 5898
5933 5932 5930 5929 5927 5925 5924 5922 5920 5918 5917 5915 5914 5912 5911 5910 5908 5907 5906 5905 5904 5903 5903 5902 5902 5901 5901 5901 5901 5901 5901 5901 5902 5901 5901 5901 5901 5900 5900 5899 5898 5898 5897
5932 5931 5930 5928 5927 5925 5923 5921 5920 5918 5917 5915 5914 5912 5911 5910 5908 5907 5906 5905 5904 5903 5903 5902 5901 5901 5901 5901 5901 5900 5901 5901 5901 5900 5900 5900 5900 5899 5899 5898 5897 5897 5896
5931 5930 5929 5927 5926 5924 5922 5921 5919 5918 5916 5915 5913 5911 5910 5909 5908 5907 5905 5904 5903 5903 5902 5902 5901 5901 5900 5900 5900 5900 5900 5900 5900 5899 5899 5899 5898 5898 5897 5897 5896 5895 5895
5929 5928 5927 5926 5925 5923 5921 5919 5918 5917 5915 5914 5912 5911 5910 5908 5907 5906 5905 5904 5903 5902 5902 5901 5900 5900 5900 5900 5899 5899 5899 5899 5899 5898 5898 5898 5897 5896 5896 5895 5894 5894 5893
5926 5926 5925 5924 5923 5921 5919 5918 5916 5915 5914 5912 5911 5910 5909 5908 5907 5905 5904 5903 5902 5902 5901 5901 5900 5899 5899 5898 5898 5898 5898 5897 5897 5897 5897 5896 5895 5895 5894 5894 5893 5892 5891
5924 5923 5923 5922 5921 5919 5918 5916 5915 5913 5912 5911 5910 5909 5908 5907 5906 5905 5904 5903 5902 5902 5901 5900 5899 5898 5898 5897 5897 5897 5896 5896 5895 5895 5895 5894 5894 5893 5893 5892 5891 5890 5889
5921 5921 5920 5920 5918 5917 5916 5914 5913 5912 5911 5910 5909 5908 5908 5907 5906 5904 5903 5902 5902 5901 5900 5899 5899 5898 5897 5896 5896 5895 5895 5894 5894 5893 5893 5892 5892 5891 5890 5889 5888 5888 5887
5918 5918 5918 5917 5916 5915 5914 5913 5912 5911 5910 5909 5908 5907 5906 5905 5905 5904 5902 5901 5901 5900 5899 5898 5898 5897 5896 5895 5894 5894 5893 5892 5892 5891 5891 5890 5889 5888 5887 5887 5886 5885 5884
5915 5915 5915 5915 5914 5914 5913 5912 5911 5910 5909 5908 5907 5906 5905 5904 5903 5902 5901 5900 5900 5899 5898 5897 5896 5895 5895 5894 5893 5892 5891 5890 5890 5889 5888 5887 5886 5885 5884 5884 5883 5881 5880
5912 5912 5912 5912 5912 5911 5911 5910 5909 5908 5908 5907 5906 5905 5904 5902 5901 5900 5900 5899 5898 5897 5896 5896 5895 5894 5893 5891 5891 5890 5889 5888 5887 5886 5885 5884 5883 5882 5882 5881 5880 5878 5876
5908 5909 5909 5909 5909 5909 5908 5908 5907 5906 5906 5905 5904 5903 5902 5900 5899 5898 5897 5896 5896 5895 5894 5894 5893 5892 5891 5889 5888 5887 5887 5886 5885 5884 5883 5882 5880 5879 5879 5878 5876 5875 5873
5904 5905 5905 5905 5906 5905 5905 5905 5904 5904 5903 5902 5901 5900 5899 5898 5896 5895 5894 5894 5893 5893 5892 5891 5890 5889 5888 5887 5886 5885 5884 5883 5882 5881 5880 5879 5878 5876 5875 5874 5873 5871 5869
5900 5901 5901 5902 5902 5902 5902 5902 5901 5901 5900 5899 5898 5897 5896 5895 5893 5892 5891 5890 5890 5889 5889 5888 5887 5886 5885 5884 5883 5882 5881 5880 5879 5878 5877 5875 5874 5873 5872 5871 5869 5867 5865
5896 5897 5897 5897 5898 5898 5898 5898 5897 5897 5896 5895 5894 5893 5893 5892 5890 5889 5889 5888 5887 5886 5886 5885 5884 5883 5882 5881 5880 5879 5878 5877 5876 5874 5873 5872 5871 5869 5868 5867 5865 5864 5862
5891 5892 5892 5893 5893 5893 5894 5893 5893 5893 5892 5892 5891 5890 5889 5888 5887 5886 5885 5884 5883 5883 5882 5881 5881 5880 5878 5877 5876 5875 5874 5873 5872 5871 5869 5868 5867 5866 5864 5863 5861 5859 5857
5885 5886 5887 5887 5888 5889 5889 5889 5889 5888 5888 5887 5887 5886 5885 5884 5884 5883 5882 5880 5879 5879 5878 5877 5876 5875 5874 5873 5872 5871 5870 5869 5868 5867 5865 5864 5862 5861 5860 5858 5857 5855 5853
5879 5881 5882 5882 5883 5883 5884 5884 5884 5883 5883 5882 5882 5881 5881 5880 5879 5878 5877 5876 5875 5874 5874 5873 5872 5871 5870 5869 5868 5867 5866 5865 5863 5862 5861 5859 5858 5856 5855 5853 5852 5850 5848
5873 5875 5876 5877 5877 5877 5877 5877 5877 5877 5877 5877 5877 5876 5876 5875 5874 5874 5873 5872 5871 5870 5869 5868 5867 5867 5866 5865 5864 5862 5861 5860 5859 5857 5856 5854 5853 5851 5849 5848 5846 5844 5842
5866 5868 5870 5870 5871 5871 5871 5871 5871 5871 5871 5871 5871 5871 5870 5870 5869 5868 5868 5867 5866 5865 5865 5864 5863 5862 5861 5860 5859 5858 5856 5855 5854 5852 5851 5849 5847 5846 5844 5842 5840 5838 5836
5859 5861 5863 5864 5864 5864 5865 5865 5865 5864 5865 5866 5866 5865 5865 5864 5863 5862 5862 5861 5861 5860 5860 5859 5858 5857 5856 5855 5854 5852 5851 5850 5848 5847 5845 5843 5841 5840 5838 5836 5834 5832 5829
5854 5855 5856 5857 5857 5857 5858 5858 5859 5859 5859 5859 5859 5859 5858 5858 5857 5857 5856 5856 5855 5855 5854 5853 5853 5851 5850 5849 5848 5847 5845 5844 5842 5840 5839 5837 5835 5833 5831 5829 5827 5825 5822
5847 5848 5849 5850 5851 5851 5852 5852 5852 5852 5853 5853 5852 5852 5852 5852 5851 5851 5850 5850 5849 5849 5848 5847 5846 5845 5844 5843 5842 5840 5839 5837 5836 5834 5832 5830 5828 5826 5824 5822 5820 5817 5815
5839 5841 5842 5842 5843 5844 5845 5845 5845 5845 5845 5845 5845 5845 5845 5845 5845 5844 5844 5843 5843 5842 5842 5841 5840 5839 5838 5837 5836 5834 5832 5831 5829 5827 5825 5823 5821 5819 5817 5814 5812 5809 5807
5831 5833 5834 5835 5836 5837 5837 5838 5838 5838 5838 5838 5838 5838 5838 5838 5838 5837 5837 5836 5836 5835 5835 5834 5834 5832 5831 5830 5829 5827 5825 5824 5822 5820 5818 5816 5814 5811 5809 5807 5804 5802 5799